Date,TemperatureHighF,TemperatureAvgF,TemperatureLowF,DewpointHighF,DewpointAvgF,DewpointLowF,HumidityHigh,HumidityAvg,HumidityLow,PressureMaxIn,PressureMinIn,WindSpeedMaxMPH,WindSpeedAvgMPH,GustSpeedMaxMPH,PrecipitationSumIn
2012-1-1,65.8,51.7,35.9,54.3,42.3,22.2,96,73,30,30.19,29.96,4,1,19,0.00
2012-1-2,49.8,41.0,29.7,27.0,15.2,6.4,61,36,21,30.17,29.99,5,1,16,0.00
2012-1-3,35.2,28.2,22.7,11.0,7.1,2.3,59,41,26,30.42,30.17,3,0,17,0.00
2012-1-4,44.8,30.8,18.4,13.5,11.5,8.8,79,49,23,30.47,30.16,2,0,11,0.00
2012-1-5,60.5,42.1,28.1,29.1,22.1,10.3,75,48,22,30.20,30.10,3,0,11,0.00
2012-1-6,65.2,45.7,29.4,33.0,29.0,25.7,89,57,24,30.17,30.03,2,0,11,0.00
2012-1-7,70.3,52.9,37.2,53.0,41.9,29.3,94,68,44,30.11,30.00,3,0,11,0.01
2012-1-8,58.9,51.1,42.5,51.7,44.5,41.0,100,80,56,30.28,30.10,2,0,9,0.01
2012-1-9,49.8,47.8,46.8,47.1,45.3,43.7,98,91,85,30.26,30.12,1,0,6,0.01
2012-1-10,57.0,51.3,47.7,48.9,47.3,45.4,100,87,66,30.17,30.03,1,0,4,0.02
2012-1-11,59.6,53.2,50.1,59.6,51.1,43.9,100,93,69,30.02,29.56,4,1,17,0.69
2012-1-12,58.0,51.1,43.2,48.4,43.6,28.2,92,76,50,29.74,29.59,8,2,26,0.02
2012-1-13,42.9,36.2,29.5,27.9,18.3,14.7,63,48,36,30.15,29.72,7,2,24,0.00
2012-1-14,47.0,34.1,21.9,22.4,19.4,14.8,88,58,28,30.30,30.14,4,0,15,0.00
2012-1-15,51.4,38.5,29.3,28.9,24.7,21.1,83,60,31,30.58,30.16,1,0,7,0.00
2012-1-16,50.7,40.3,29.4,33.9,28.8,24.1,83,65,46,30.65,30.40,2,0,10,0.00
2012-1-17,65.2,54.0,42.5,56.1,46.0,34.6,98,75,60,30.39,29.95,5,1,20,0.52
2012-1-18,56.5,47.7,38.8,56.2,35.5,23.7,99,66,37,30.16,29.92,1,0,9,0.43
2012-1-19,48.3,38.9,28.5,31.9,26.1,20.2,85,61,44,30.28,30.15,2,0,10,0.00
2012-1-20,49.5,41.9,31.9,46.1,37.2,29.0,99,85,56,30.22,30.12,1,0,4,0.17
2012-1-21,59.2,52.2,46.4,59.2,52.1,46.1,100,99,95,30.14,29.90,2,0,12,0.64
2012-1-22,50.7,9.0,39.8,50.7,-71.9,-99.9,100,18,82,30.39,30.15,2,0,11,0.00
2012-1-23,-200.0,0.0,200.0,-99.9,-99.9,-99.9,0,0,100,30.33,30.05,0,0,0,0.00
2012-1-24,61.0,13.6,51.4,52.0,-64.6,-99.9,100,18,64,30.28,30.07,1,0,5,0.00
2012-1-25,66.0,22.3,35.2,47.3,-45.8,-99.9,100,21,35,30.38,30.21,2,0,7,0.00
2012-1-26,66.6,18.3,60.1,59.5,-54.9,-99.9,84,23,77,30.21,29.75,1,0,9,0.00
2012-1-27,67.1,24.2,59.6,54.8,-43.8,-99.9,81,22,39,30.07,29.65,6,1,20,0.01
2012-1-28,63.9,21.6,34.9,40.1,-46.4,-99.9,96,21,35,30.27,30.05,2,0,11,0.00
2012-1-29,53.8,18.4,28.2,25.5,-54.8,-99.9,85,12,18,30.45,30.26,4,0,12,0.00
2012-1-30,61.5,20.6,28.2,24.2,-52.8,-99.9,83,12,19,30.50,30.34,2,0,10,0.00
2012-1-31,66.4,22.7,34.0,30.4,-50.8,-99.9,71,12,21,30.47,30.30,4,1,14,0.00
2012-2-1,67.3,18.3,53.6,49.1,-57.2,-99.9,67,16,48,30.31,30.11,3,0,11,0.00
2012-2-2,70.9,24.0,54.7,52.1,-46.6,-99.9,90,19,28,30.35,30.05,2,0,11,0.00
2012-2-3,60.1,21.4,41.2,33.7,-48.7,-99.9,69,16,32,30.51,30.34,3,0,12,0.00
2012-2-4,52.3,1.4,52.0,49.4,-95.8,-99.9,90,2,89,30.41,30.08,0,0,2,0.00
2012-2-5,-200.0,0.0,200.0,-99.9,-99.9,-99.9,0,0,100,30.26,30.00,0,0,0,0.00
2012-2-6,-200.0,0.0,200.0,-99.9,-99.9,-99.9,0,0,100,30.32,30.18,0,0,0,0.00
2012-2-7,59.0,20.2,32.5,36.9,-49.5,-99.9,98,18,27,30.26,30.15,1,0,5,0.00
2012-2-8,54.1,12.4,49.1,40.0,-67.5,-99.9,64,13,53,30.24,30.14,1,0,6,0.00
2012-2-9,50.5,17.6,29.4,32.0,-49.7,-99.9,96,21,43,30.38,30.23,1,0,7,0.01
2012-2-10,-200.0,0.0,200.0,-99.9,-99.9,-99.9,0,0,100,30.24,29.87,0,0,0,0.00
2012-2-11,49.4,15.9,33.7,37.7,-55.3,-99.9,91,16,27,30.23,29.81,3,0,25,0.00
2012-2-12,43.3,14.4,22.2,10.1,-57.5,-99.9,47,12,23,30.39,30.21,3,0,17,0.00
2012-2-13,53.1,18.3,23.0,19.8,-53.4,-99.9,79,13,20,30.39,30.13,2,0,9,0.00
2012-2-14,54.5,13.9,46.1,38.3,-63.4,-99.9,63,14,42,30.16,30.06,3,0,14,0.00
2012-2-15,66.0,22.6,34.7,42.2,-47.4,-99.9,99,18,27,30.31,30.15,2,0,7,0.00
2012-2-16,-200.0,0.0,200.0,-99.9,-99.9,-99.9,0,0,100,30.27,30.05,0,0,0,0.00
2012-2-17,63.9,22.4,46.0,49.4,-44.3,-99.9,100,24,43,30.19,30.08,1,0,6,0.00
2012-2-18,65.3,40.1,39.3,46.3,-2.7,-99.9,90,37,32,30.18,29.95,2,0,7,0.04
2012-2-19,50.8,42.3,34.0,47.8,40.3,31.2,96,93,85,30.04,29.77,2,0,11,0.29
2012-2-20,53.6,39.8,29.4,34.4,29.5,25.0,96,70,34,30.39,30.03,1,0,9,0.01
2012-2-21,59.3,43.5,28.7,42.5,34.4,25.6,90,72,49,30.39,30.06,4,0,14,0.00
2012-2-22,68.1,55.2,39.1,51.5,46.0,37.0,99,73,47,30.06,29.63,5,1,21,0.00
2012-2-23,76.5,63.3,48.8,58.8,52.7,47.2,99,71,44,29.74,29.63,5,1,19,0.00
2012-2-24,72.5,65.3,46.4,63.1,52.5,20.3,84,65,28,29.97,29.57,6,2,22,0.01
2012-2-25,55.4,45.3,37.6,21.9,18.3,14.4,51,35,20,30.38,29.98,6,1,22,0.00
2012-2-26,57.0,41.0,26.3,27.6,22.2,18.1,83,51,24,30.56,30.38,2,0,9,0.00
2012-2-27,53.8,47.2,35.3,49.4,41.9,25.7,94,82,55,30.50,30.36,1,0,5,0.04
2012-2-28,70.9,56.9,44.8,49.1,41.8,31.0,99,64,25,30.48,30.31,2,0,12,0.00
2012-2-29,68.9,61.0,53.3,60.2,53.2,38.3,92,77,49,30.32,29.88,4,1,20,0.00
2012-3-1,80.5,69.2,55.1,60.2,49.6,31.9,85,56,19,29.91,29.79,5,2,18,0.00
2012-3-2,67.4,55.9,49.6,60.0,50.7,42.0,97,83,62,30.00,29.72,2,0,13,0.09
2012-3-3,67.4,58.1,50.8,61.8,51.8,25.2,99,81,36,29.82,29.63,4,0,19,0.87
2012-3-4,53.3,47.5,33.7,35.8,24.2,10.4,73,42,19,30.09,29.71,5,1,23,0.00
2012-3-5,52.9,44.3,33.7,28.7,21.8,14.5,72,43,23,30.56,29.98,5,1,21,0.00
2012-3-6,54.4,36.0,25.8,22.6,19.9,17.7,81,55,24,30.71,30.56,2,0,9,0.00
2012-3-24,80.9,67.0,60.9,66.6,60.2,52.7,99,81,38,30.00,29.75,2,0,10,0.32
2012-3-25,74.2,64.4,54.2,62.5,57.9,51.0,99,81,53,29.87,29.72,1,0,10,0.75
2012-3-26,90.5,73.0,59.2,61.6,54.1,42.7,99,59,26,30.10,29.85,2,0,10,0.01
2012-3-27,69.8,59.8,50.2,46.6,32.8,25.5,59,37,25,30.38,30.10,2,0,14,0.00
2012-3-28,66.3,54.1,47.1,56.2,45.0,34.4,83,72,49,30.28,30.15,3,0,15,0.00
2012-3-30,81.6,65.5,53.8,62.1,53.2,41.2,96,67,39,30.06,29.89,4,0,19,0.09
2012-3-31,77.7,67.0,61.0,65.7,60.4,56.9,99,82,50,29.91,29.76,2,0,12,0.20
2012-4-1,79.0,63.5,51.0,59.7,54.4,48.6,99,76,38,29.94,29.78,3,0,19,0.00
2012-4-2,85.1,66.6,54.2,66.0,58.0,53.1,99,78,42,29.85,29.72,1,0,7,0.06
2012-4-4,88.2,71.5,58.3,61.8,57.8,50.6,99,68,28,29.97,29.66,3,0,12,0.00
2012-4-5,72.1,62.9,53.2,60.5,55.0,48.8,95,77,45,29.82,29.67,3,1,13,0.29
2012-4-6,66.4,54.0,44.5,51.4,43.2,33.9,96,72,30,30.14,29.82,2,0,14,0.24
2012-4-7,72.1,54.8,38.3,44.0,36.4,25.7,98,60,20,30.33,30.15,2,0,11,0.00
2012-4-8,79.0,60.6,41.8,47.5,40.6,31.8,98,56,22,30.21,29.99,4,0,13,0.00
2012-4-9,76.1,62.7,46.7,45.1,36.4,28.5,77,42,18,30.14,29.91,5,1,18,0.00
2012-4-10,75.4,60.3,43.5,46.3,38.8,32.4,88,52,23,30.04,29.84,6,1,22,0.00
2012-4-14,77.7,59.8,41.9,53.1,41.8,37.2,94,58,24,30.40,30.22,2,0,10,0.00
2012-4-15,80.7,67.2,56.0,62.3,58.3,53.3,98,75,49,30.29,30.18,4,0,12,0.00
2012-4-16,84.5,71.3,56.3,60.4,57.4,53.4,96,65,38,30.25,30.12,4,1,15,0.00
2012-4-17,71.8,62.6,58.1,61.5,57.8,55.8,96,85,68,30.21,30.13,0,0,2,0.00
2012-4-18,66.9,62.9,61.2,61.9,59.7,55.3,99,90,68,30.18,30.09,1,0,9,0.14
2012-4-19,74.7,65.1,59.8,62.1,60.5,58.7,99,86,62,30.14,30.05,1,0,10,0.03
2012-4-20,80.7,68.1,56.7,65.6,61.0,55.6,99,80,56,30.07,29.88,1,0,7,0.00
2012-4-21,81.1,70.1,59.9,64.6,60.1,56.4,99,73,45,29.90,29.71,2,0,7,0.04
2012-4-22,65.8,56.0,46.8,61.5,53.5,42.8,97,91,80,29.72,29.55,1,0,13,0.39
2012-4-23,57.8,47.7,39.1,42.2,33.8,23.7,90,62,28,29.81,29.63,4,1,19,0.00
2012-4-24,66.0,50.4,34.6,39.7,30.4,18.9,87,53,18,29.89,29.80,7,1,21,0.00
2012-4-25,74.7,59.3,48.8,57.0,49.6,39.7,97,73,44,30.04,29.89,2,0,7,0.09
2012-4-26,72.7,67.3,60.1,63.4,58.2,53.2,88,73,63,29.91,29.83,6,1,20,0.05
2012-4-27,86.5,71.9,56.6,65.9,59.6,55.1,99,69,35,30.08,29.90,2,0,9,0.02
2012-4-28,66.4,62.8,59.8,63.1,53.9,48.1,90,73,62,30.19,30.07,1,0,9,0.01
2012-4-29,84.1,69.5,57.6,65.1,60.2,54.1,90,74,48,30.21,30.12,2,0,9,0.00
2012-4-30,86.5,74.8,62.1,66.1,63.7,59.1,98,71,41,30.24,30.10,2,0,10,0.00
2012-5-1,73.3,69.0,66.4,64.0,62.3,60.8,85,79,72,30.21,30.11,2,0,14,0.00
2012-5-5,88.8,76.5,63.4,66.6,62.0,57.9,95,64,37,29.97,29.84,4,0,14,0.00
2012-5-6,81.8,73.2,64.8,64.5,61.9,59.6,85,69,48,30.05,29.91,1,0,14,0.00
2012-5-7,69.3,64.5,62.3,61.5,60.7,59.4,92,88,76,30.09,30.00,1,0,9,0.00
2012-5-8,79.6,70.3,64.3,71.3,64.3,60.8,98,82,59,30.02,29.85,2,0,15,0.91
2012-5-9,71.5,65.5,59.0,68.7,64.0,58.3,100,95,84,29.91,29.73,1,0,5,0.52
2012-5-10,59.2,53.3,49.8,58.6,52.8,49.3,100,98,97,29.89,29.80,0,0,1,0.01
2012-5-16,84.9,72.8,62.7,67.3,63.2,59.2,99,75,42,30.00,29.90,1,0,7,0.37
2012-5-17,88.8,72.6,65.2,72.5,66.6,59.4,100,86,38,30.00,29.93,2,0,13,0.00
2012-5-18,79.6,70.4,63.2,61.2,57.8,52.5,89,66,46,30.14,30.03,2,0,13,0.00
2012-5-19,79.2,67.3,57.0,53.5,51.2,48.1,82,58,35,30.19,30.09,1,0,10,0.00
2012-5-20,85.1,69.9,51.1,56.5,52.6,48.3,98,60,28,30.17,30.06,2,0,16,0.00
2012-5-21,88.8,73.1,60.9,65.7,59.8,55.6,93,66,33,30.08,29.89,1,0,10,0.12
2012-5-22,86.7,72.9,62.0,66.8,63.2,59.2,99,75,41,29.94,29.80,2,0,13,0.84
2012-5-23,90.7,76.1,65.0,71.4,67.0,62.9,100,78,42,29.94,29.85,1,0,7,0.05
2012-5-24,91.6,79.9,71.1,73.0,65.4,52.3,95,66,29,30.04,29.92,1,0,9,0.00
2012-5-25,93.4,78.7,64.0,68.3,63.7,58.2,97,65,31,30.15,30.04,1,0,6,0.00
2012-5-26,91.4,78.7,66.0,69.6,65.8,62.9,95,68,42,30.16,30.07,1,0,11,0.00
2012-5-27,88.2,77.6,66.0,68.8,65.5,62.9,92,68,46,30.15,30.06,3,0,12,0.00
2012-5-28,89.7,78.0,69.1,69.1,67.3,63.7,93,72,47,30.10,30.00,2,0,14,0.00
2012-5-29,89.0,76.3,69.1,70.2,68.2,66.3,96,78,48,30.03,29.88,1,0,10,0.00
2012-6-1,86.3,75.9,67.6,71.5,66.2,63.9,89,73,48,29.87,29.72,3,0,17,0.18
2012-6-2,79.6,69.0,59.0,64.0,52.5,46.4,89,59,32,29.96,29.83,2,0,10,0.00
2012-6-3,84.9,70.4,55.3,57.7,53.2,48.7,93,59,29,30.01,29.86,3,0,13,0.00
2012-6-4,72.5,63.6,60.7,62.1,58.5,56.8,89,84,65,29.87,29.78,0,0,3,0.00
2012-6-5,78.1,70.2,62.7,62.5,57.8,54.6,94,66,45,29.90,29.74,1,0,7,0.06
2012-6-6,75.3,64.9,56.9,60.5,57.0,54.4,94,76,54,30.05,29.89,4,1,14,0.21
2012-6-7,64.3,60.8,59.6,58.5,57.6,56.4,92,89,81,30.08,30.05,0,0,1,0.00
2012-6-10,82.2,73.5,63.2,69.0,61.5,52.6,93,69,37,30.17,30.09,1,0,7,0.02
2012-6-11,79.9,73.2,69.4,73.6,70.6,68.5,99,92,76,30.15,30.02,2,0,10,1.02
2012-6-12,86.3,74.8,66.0,72.7,70.7,63.7,100,88,60,30.05,29.88,2,0,14,1.28
2012-6-13,90.1,76.7,65.0,73.4,67.6,64.7,100,77,46,30.02,29.92,2,0,11,0.04
2012-6-14,84.5,74.2,63.2,66.4,58.2,52.3,91,60,37,30.19,30.02,2,0,12,0.00
2012-6-15,84.1,73.7,64.0,62.5,59.4,51.6,90,64,33,30.25,30.15,2,0,14,0.00
2012-6-16,85.5,72.4,59.2,59.2,54.0,48.0,87,55,28,30.30,30.17,3,0,12,0.00
2012-6-17,85.1,72.1,57.0,63.6,58.3,53.4,92,64,42,30.22,30.04,1,0,6,0.00
2012-6-18,70.1,68.9,68.1,62.7,62.5,62.4,83,80,77,30.07,30.07,0,0,0,0.00
2012-6-19,92.5,79.9,65.8,66.8,64.0,61.3,91,61,36,30.21,30.12,1,0,7,0.00
2012-6-20,95.9,81.9,68.8,70.3,66.4,62.6,90,63,35,30.20,30.08,2,0,11,0.00
2012-6-21,95.9,83.1,69.8,70.8,67.5,63.8,91,63,36,30.10,29.91,1,0,7,0.00
2012-6-22,95.9,80.8,72.3,69.3,66.9,63.8,82,65,35,29.96,29.86,2,0,12,0.00
2012-6-23,94.5,81.0,67.8,70.5,67.9,65.4,94,67,42,30.03,29.91,1,0,14,0.01
2012-6-24,92.3,77.8,70.1,75.8,69.3,67.0,92,77,48,30.03,29.93,3,0,12,0.25
2012-6-25,93.6,80.8,71.5,72.6,69.9,67.4,91,72,44,29.95,29.72,2,0,9,0.22
2012-6-26,85.3,74.1,63.2,71.8,55.9,44.5,96,59,25,29.91,29.76,2,0,14,0.00
2012-6-27,89.0,73.1,55.4,58.0,52.6,47.2,93,55,26,30.03,29.91,1,0,10,0.00
2012-6-29,107.9,87.7,66.6,70.0,63.3,55.1,89,52,18,29.92,29.79,2,0,9,0.00
2012-6-30,105.7,89.9,73.7,72.0,66.0,61.6,77,49,25,29.93,29.83,1,0,9,0.00
2012-7-1,107.4,89.3,75.8,79.6,71.2,59.3,91,61,23,30.08,29.87,3,0,13,0.26
2012-7-2,86.5,78.4,76.1,77.3,75.7,74.0,99,92,70,30.16,29.98,2,0,15,0.20
2012-7-7,100.7,87.3,75.1,71.5,68.6,62.7,82,57,30,30.05,29.94,2,0,9,0.00
2012-7-8,99.4,85.7,77.6,78.6,71.5,67.0,81,64,39,30.00,29.86,4,0,20,0.03
2012-7-9,99.7,82.9,74.2,80.2,73.2,66.1,98,76,35,29.97,29.86,9,0,26,0.20
2012-7-10,96.8,83.2,78.5,80.4,78.0,76.4,99,86,56,30.06,29.92,1,0,9,0.83
2012-7-11,90.5,80.5,74.7,79.3,75.8,70.1,100,87,61,30.14,30.02,2,0,11,0.16
2012-7-12,82.0,75.6,70.3,71.5,69.4,67.7,92,81,68,30.18,30.11,1,0,6,0.00
2012-7-13,88.4,77.5,69.9,73.5,70.3,67.6,96,80,57,30.22,30.13,3,0,11,0.00
2012-7-14,93.8,81.8,74.0,73.1,71.1,67.2,95,73,44,30.25,30.11,2,0,9,0.00
2012-7-15,95.6,82.8,72.3,73.7,70.7,65.5,98,70,38,30.23,30.08,2,0,11,0.01
2012-7-16,95.1,78.8,70.8,73.8,70.8,67.7,99,79,41,30.12,29.97,2,0,10,0.96
2012-7-17,96.6,79.7,68.6,75.0,71.4,68.6,100,79,41,30.03,29.91,4,0,15,0.01
2012-7-18,97.1,82.3,72.5,75.0,71.5,68.0,98,73,43,30.03,29.93,2,0,10,0.00
2012-7-19,95.4,81.2,70.4,74.1,70.4,67.5,94,72,46,30.07,29.94,2,0,12,0.00
2012-7-20,91.6,78.5,73.9,77.5,73.1,69.8,99,85,53,29.99,29.91,3,0,17,0.65
2012-7-21,92.9,81.3,74.0,78.1,75.2,72.3,100,84,57,30.09,29.97,3,0,12,0.00
2012-7-22,94.5,84.2,74.2,76.3,72.8,67.2,98,72,42,30.18,30.09,2,0,11,0.00
2012-7-24,96.3,84.3,74.6,75.5,71.4,65.7,94,68,44,30.07,29.87,2,0,11,0.00
2012-7-25,94.7,82.5,72.8,75.0,71.6,68.3,97,72,47,30.01,29.91,1,0,7,0.06
2012-7-26,99.2,87.0,75.3,74.6,71.7,67.4,92,63,36,29.94,29.81,2,0,11,0.00
2012-7-27,99.4,84.2,73.9,76.8,71.6,66.1,97,70,36,29.96,29.85,3,0,15,0.70
2012-7-28,98.0,83.2,72.5,75.6,71.6,64.6,100,73,35,30.02,29.90,2,0,11,0.02
2012-7-29,96.1,83.1,70.6,71.1,66.6,57.6,97,62,31,30.04,29.93,1,0,6,0.00
2012-7-30,95.4,80.6,72.0,72.3,68.1,62.2,92,69,35,30.02,29.92,8,0,19,0.00
2012-7-31,85.3,75.9,69.3,74.0,70.5,67.5,97,84,60,30.01,29.93,2,0,9,0.03
2012-8-1,95.1,82.2,72.7,72.8,69.0,58.8,97,69,30,29.97,29.85,1,0,7,0.00
2012-8-2,94.3,79.1,72.8,72.0,70.4,67.0,92,77,41,29.94,29.86,1,0,5,0.00
2012-8-4,93.6,82.1,73.3,72.5,70.0,67.4,87,69,44,30.22,30.07,2,0,10,0.00
2012-8-5,93.4,81.7,71.8,73.2,71.0,68.7,94,72,46,30.25,30.14,3,0,12,0.00
2012-8-6,93.6,80.6,73.7,72.5,70.9,67.1,93,75,44,30.17,30.01,2,0,9,0.00
2012-8-7,89.3,77.0,69.4,75.4,72.3,68.5,99,87,55,30.08,29.97,2,0,10,1.11
2012-8-8,91.6,76.9,70.9,78.0,72.1,69.6,100,87,50,30.04,29.95,1,0,6,0.09
2012-8-9,89.0,76.8,67.6,73.9,70.4,67.0,99,82,56,30.03,29.88,5,0,16,1.07
2012-8-10,84.0,75.8,70.1,74.5,71.2,69.8,100,87,67,29.91,29.82,2,0,11,0.04
2012-8-11,75.8,73.8,73.0,71.9,71.1,70.6,94,91,85,29.91,29.87,1,0,5,0.00
2012-8-12,90.5,78.1,68.9,70.3,68.2,63.9,98,74,42,30.04,29.95,2,0,9,0.00
2012-8-13,89.9,72.8,65.6,71.1,65.9,57.3,100,83,36,30.08,30.00,1,0,6,0.00
2012-8-18,87.8,76.2,66.1,71.8,68.1,64.8,100,79,50,29.95,29.85,1,0,7,0.00
2012-8-19,81.2,73.4,67.8,72.5,68.8,66.6,100,86,64,29.93,29.85,1,0,10,0.68
2012-8-20,81.6,73.0,67.4,69.3,67.6,65.7,100,85,59,30.00,29.87,0,0,6,0.11
2012-8-21,87.2,74.7,67.3,71.3,67.8,63.4,100,81,46,30.09,29.98,2,0,12,0.01
2012-8-22,87.0,74.8,67.6,70.3,67.4,64.3,98,80,49,30.14,30.06,2,0,9,0.00
2012-8-24,87.6,74.3,64.5,68.0,62.3,54.6,99,71,33,30.18,30.10,2,0,12,0.00
2012-8-25,87.6,72.4,58.1,62.9,58.7,55.0,99,67,35,30.19,30.11,2,0,15,0.00
2012-8-26,89.9,74.3,60.1,65.1,61.8,58.4,99,69,35,30.22,30.11,1,0,6,0.00
2012-8-27,92.5,76.3,64.7,71.5,67.5,63.2,99,77,44,30.18,30.03,1,0,11,0.00
2012-8-28,86.5,77.5,71.8,74.5,72.1,69.9,96,85,62,30.06,29.95,1,0,7,0.01
2012-8-29,87.4,76.9,72.8,79.9,74.3,70.6,99,92,60,30.03,29.96,1,0,5,0.97
2012-8-30,87.8,79.3,73.7,77.2,75.3,73.7,100,89,66,30.18,30.02,1,0,5,0.00
2012-8-31,94.7,82.8,74.0,77.7,74.0,70.8,100,78,48,30.25,30.11,2,0,9,0.00
2012-9-1,96.1,80.6,71.8,74.3,71.5,68.1,98,76,42,30.16,30.06,2,0,11,0.00
2012-9-2,93.2,78.6,73.3,73.8,72.2,68.7,97,83,47,30.08,30.01,2,0,10,0.00
2012-9-3,91.4,78.7,73.2,74.6,72.0,70.0,94,81,53,30.04,29.95,5,0,15,0.00
2012-9-4,87.4,77.0,73.5,78.7,73.0,70.4,100,88,62,30.02,29.93,2,0,14,1.45
2012-9-5,89.9,80.2,75.1,76.4,74.9,72.7,100,85,59,29.99,29.89,2,0,12,0.00
2012-9-6,90.1,79.4,74.4,77.0,74.6,72.8,96,86,61,29.98,29.90,1,0,9,0.03
2012-9-7,91.4,79.4,70.9,73.7,70.6,66.2,100,78,44,30.01,29.88,1,0,7,0.00
2012-9-8,74.6,70.6,68.6,72.7,69.4,67.4,100,96,88,29.88,29.82,0,0,3,0.00
2012-9-9,82.0,69.9,61.2,66.1,57.8,50.9,96,69,35,30.04,29.86,1,0,11,0.01
2012-9-10,66.4,58.0,54.5,59.8,56.2,53.4,100,94,74,30.16,30.04,0,0,1,0.00
2012-9-11,82.2,70.2,62.7,61.9,58.5,54.6,90,69,41,30.34,30.17,1,0,7,0.00
2012-9-12,83.2,69.0,57.2,61.1,57.6,53.7,99,72,37,30.39,30.28,2,0,11,0.00
2012-9-13,82.8,67.5,53.9,61.3,57.5,52.5,100,74,39,30.38,30.27,1,0,9,0.00
2012-9-14,85.7,69.4,57.5,65.8,60.0,55.6,96,76,38,30.30,30.18,0,0,4,0.00
2012-9-15,89.0,73.3,60.5,65.6,61.9,58.2,100,72,36,30.22,30.11,1,0,6,0.00
2012-9-16,75.8,70.4,67.1,69.1,65.4,63.1,92,85,71,30.17,30.08,1,0,6,0.02
2012-9-17,80.3,71.3,65.5,71.9,67.4,64.0,99,88,72,30.13,29.92,2,0,9,0.19
2012-9-18,78.1,74.0,69.9,75.2,70.5,67.9,99,89,75,29.91,29.74,5,1,17,0.50
2012-9-19,79.9,70.0,63.1,68.4,59.7,55.9,99,72,46,30.16,29.86,2,0,13,0.00
2012-9-20,81.6,67.1,54.7,61.0,57.2,53.6,100,74,42,30.21,30.08,1,0,6,0.00
2012-9-21,83.6,69.1,55.1,64.8,60.6,54.3,100,77,48,30.14,30.01,2,0,9,0.00
2012-9-22,87.0,74.2,62.9,65.6,62.5,58.6,95,70,39,30.04,29.92,4,1,14,0.00
2012-9-23,81.8,69.7,56.3,63.8,51.1,41.9,85,56,26,30.16,30.01,1,0,9,0.00
2012-9-24,76.3,61.9,50.5,50.0,43.9,37.0,88,56,27,30.28,30.16,2,0,12,0.00
2012-9-25,79.0,63.1,47.3,58.1,53.0,45.8,100,73,44,30.28,30.21,2,0,7,0.00
2012-9-26,72.1,58.0,54.2,61.4,55.6,53.1,100,92,69,30.26,30.20,1,0,10,0.00
2012-9-28,86.7,71.0,58.0,65.7,60.8,56.7,100,74,40,30.14,30.00,2,0,9,0.00
2012-9-29,74.9,68.1,64.5,66.1,64.4,62.3,97,88,73,30.04,29.90,1,0,5,0.01
2012-9-30,77.2,67.1,58.9,64.5,58.3,51.9,99,76,45,29.97,29.87,1,0,6,0.01
2012-10-1,66.1,62.8,58.4,66.1,61.4,57.0,100,95,85,29.93,29.84,3,1,16,0.41
2012-10-2,83.0,74.6,66.3,75.3,70.9,66.3,100,89,67,29.99,29.79,2,0,11,0.12
2012-10-3,80.9,72.5,67.1,69.6,65.8,63.0,100,81,57,30.22,29.99,2,0,10,0.00
2012-10-4,82.8,71.1,62.3,67.4,63.2,56.5,100,80,42,30.27,30.18,2,0,9,0.03
2012-10-5,84.1,69.1,55.7,61.5,57.9,53.6,100,73,36,30.23,30.05,1,0,9,0.00
2012-10-6,84.9,69.8,58.4,66.0,60.5,56.0,100,76,40,30.06,29.91,2,0,10,0.09
2012-10-7,63.4,57.6,54.4,61.4,54.7,49.7,98,90,80,30.17,29.97,1,0,10,0.48
2012-10-8,54.4,51.7,47.0,49.7,46.4,44.2,93,82,75,30.24,30.16,1,0,10,0.00
2012-10-9,47.6,47.2,46.7,46.0,45.6,45.1,96,94,92,30.23,30.17,0,0,5,0.01
2012-10-11,70.9,56.6,44.3,48.8,43.8,37.9,92,67,31,30.35,30.17,1,0,7,0.00
2012-10-12,77.4,60.0,44.2,58.2,50.3,43.1,100,74,41,30.34,30.22,0,0,5,0.00
2012-10-13,70.9,57.7,47.1,53.8,46.4,39.5,92,69,38,30.51,30.33,2,0,12,0.00
2012-10-14,74.7,60.9,45.7,61.4,54.5,44.4,98,81,60,30.37,30.06,2,0,10,0.00
2012-10-15,77.6,67.1,55.7,67.3,58.8,44.1,99,76,45,30.06,29.77,3,0,13,0.12
2012-10-16,72.7,57.4,44.2,49.0,44.7,39.3,98,68,31,30.03,29.92,1,0,5,0.00
2012-10-17,74.0,57.2,44.1,52.5,46.4,42.5,99,72,35,30.05,29.94,1,0,6,0.00
2012-10-18,63.4,52.7,49.1,58.6,50.4,47.2,100,92,78,29.95,29.90,1,0,6,0.00
2012-10-20,72.5,56.2,41.9,49.0,42.4,39.4,94,64,33,30.01,29.81,2,0,10,0.00
2012-10-21,72.0,55.4,41.3,46.2,42.3,38.4,96,66,30,30.20,30.01,1,0,7,0.00
2012-10-22,53.6,43.8,40.9,51.4,42.2,39.6,99,94,90,30.30,30.19,0,0,0,0.00
2012-10-28,70.3,61.6,52.6,52.5,47.4,37.8,72,60,46,29.76,29.64,1,0,15,0.00
2012-10-29,53.5,49.0,45.5,37.5,32.7,30.6,58,53,43,29.71,29.67,1,0,15,0.00
2012-11-3,70.9,50.3,32.9,40.6,34.3,29.4,94,61,25,30.17,30.03,2,0,7,0.00
2012-11-4,64.8,54.6,46.0,48.3,41.8,36.3,80,63,44,30.06,29.98,1,0,5,0.00
2012-11-5,61.0,50.5,41.9,43.3,32.8,26.1,79,53,27,30.14,30.03,1,0,9,0.00
2012-11-6,47.9,42.5,33.7,33.3,31.7,29.8,86,66,53,30.17,30.01,2,0,11,0.00
2012-11-7,55.3,41.1,30.0,36.3,32.3,27.7,93,74,44,30.01,29.90,1,0,9,0.00
2012-11-8,65.0,46.8,31.6,38.9,29.3,22.1,98,58,20,30.20,30.01,1,0,10,0.00
2012-11-9,69.1,47.0,30.0,35.8,30.9,27.2,92,60,21,30.33,30.20,2,0,7,0.00
2012-11-10,74.0,50.3,31.8,38.6,34.0,29.2,96,61,21,30.42,30.30,2,0,7,0.00
2012-11-11,72.7,54.1,35.9,54.1,43.4,33.3,96,70,38,30.52,30.41,2,0,10,0.00
2012-11-12,70.8,63.8,56.9,61.8,57.7,53.3,93,81,69,30.42,30.19,1,0,9,0.00
2012-11-13,62.7,50.8,39.1,59.8,42.6,28.2,96,75,37,30.45,30.18,2,0,11,0.21
2012-11-14,53.1,43.6,34.9,33.5,30.3,27.9,85,61,38,30.54,30.38,2,0,12,0.00
2012-11-15,47.6,40.3,33.5,37.0,34.2,30.6,97,79,61,30.41,30.30,0,0,7,0.63
2012-11-16,58.1,42.5,31.9,39.4,34.1,30.0,95,75,42,30.44,30.32,1,0,10,0.00
2012-11-17,58.3,45.3,32.9,32.3,28.2,22.3,92,56,25,30.53,30.43,2,0,13,0.00
2012-11-18,57.5,49.9,43.5,44.8,38.5,28.5,81,65,52,30.49,30.38,1,0,11,0.01
2012-11-19,63.1,53.4,44.1,47.2,43.2,40.5,87,69,54,30.38,30.23,2,0,11,0.00
2012-11-20,62.7,48.0,39.1,44.1,40.8,36.9,96,78,47,30.24,30.10,1,0,4,0.00
2012-11-21,63.2,46.1,34.4,44.3,35.8,31.6,99,72,31,30.24,30.14,1,0,11,0.00
2012-11-22,64.2,45.3,31.8,35.3,30.9,27.0,94,63,26,30.32,30.21,1,0,6,0.00
2012-11-23,66.0,47.8,29.8,40.6,34.5,27.2,97,64,33,30.23,29.97,2,0,10,0.00
2012-11-24,55.6,47.8,39.9,31.3,23.5,14.0,59,41,20,30.10,29.99,1,0,12,0.00
2012-11-25,53.9,36.7,23.5,25.3,21.0,18.4,85,57,25,30.28,30.10,2,0,12,0.00
2012-11-26,65.2,44.3,27.5,31.1,25.5,21.7,86,54,20,30.28,30.15,1,0,6,0.00
2012-11-27,58.0,49.3,40.3,50.0,39.2,29.9,95,70,40,30.27,30.14,1,0,9,0.09
2012-11-28,56.3,44.1,33.2,43.7,35.0,28.0,97,73,35,30.45,30.26,1,0,7,0.00
2012-11-29,57.0,40.2,27.3,37.8,31.6,25.3,96,74,46,30.54,30.42,2,0,9,0.01
2012-11-30,64.5,44.3,28.4,43.4,35.7,26.4,97,75,45,30.47,30.33,3,0,11,0.00
2012-12-1,68.3,48.3,34.4,50.8,41.4,32.6,100,79,47,30.46,30.35,1,0,6,0.00
2012-12-2,68.8,52.8,39.9,52.6,46.3,38.2,97,80,54,30.45,30.30,3,0,10,0.00
2012-12-3,53.9,46.6,44.5,53.9,45.2,43.2,100,95,89,30.36,30.31,0,0,2,0.00
2012-12-4,72.0,58.1,45.8,56.1,50.4,43.6,97,78,49,30.37,30.23,2,0,10,0.00
2012-12-5,69.1,59.2,48.8,57.0,52.7,44.5,95,80,60,30.23,30.14,3,0,12,0.03
2012-12-6,51.1,48.8,46.1,44.5,35.2,30.7,86,60,50,30.34,30.22,1,0,9,0.00
2012-12-7,52.8,49.8,47.4,49.9,42.0,33.8,98,76,57,30.25,30.07,1,0,4,0.04
2012-12-8,69.9,56.6,48.5,54.3,51.1,48.0,99,84,56,30.10,30.01,2,0,10,0.00
2012-12-9,69.1,59.7,52.5,60.8,56.6,51.8,100,90,74,30.16,30.02,1,0,6,0.02
2012-12-10,69.1,61.9,56.2,59.6,57.7,55.8,100,87,64,30.02,29.75,3,1,15,0.05
2012-12-11,62.3,55.4,45.8,58.1,45.5,31.3,98,71,50,30.19,29.76,2,0,9,0.00
2012-12-12,46.2,43.4,41.1,40.4,34.1,29.7,91,71,57,30.36,30.18,1,0,12,0.09
2012-12-13,52.5,42.4,32.1,36.0,30.3,26.9,87,64,42,30.45,30.29,2,0,11,0.02
2012-12-14,56.7,38.4,26.3,31.2,27.2,23.5,92,69,29,30.46,30.29,0,0,4,0.01
2012-12-15,58.7,45.9,33.1,36.9,31.1,23.5,86,61,27,30.33,30.12,1,0,6,0.00
2012-12-16,58.6,54.0,50.2,55.0,50.7,37.3,99,89,61,30.13,29.95,1,0,5,0.33
2012-12-17,56.9,55.2,53.2,56.3,54.7,53.2,100,98,94,29.95,29.72,2,0,10,0.19
2012-12-18,59.5,53.2,37.3,54.5,41.5,27.7,99,68,30,29.99,29.71,4,1,16,0.00
2012-12-19,66.3,47.8,34.1,39.9,34.7,29.9,88,64,33,30.15,29.98,3,0,9,0.00
2012-12-20,58.9,47.6,37.6,57.3,42.8,35.5,99,84,61,30.15,29.58,6,1,24,0.44
2012-12-21,46.2,41.5,37.5,36.8,24.5,19.5,70,52,38,29.96,29.66,8,3,27,0.00
2012-12-22,54.1,39.5,27.8,23.1,18.0,12.0,75,45,19,30.19,29.96,3,0,13,0.00
2012-12-23,56.0,40.5,24.7,32.6,23.1,13.8,87,56,23,30.24,30.09,2,0,7,0.00
2012-12-24,49.5,47.3,45.2,48.9,39.6,31.5,100,77,52,30.10,29.94,1,0,5,0.29
2012-12-25,57.0,50.6,46.0,49.2,46.2,42.5,100,86,59,30.14,29.98,2,0,9,0.01
2012-12-26,54.5,47.7,40.1,53.1,43.5,31.4,100,86,66,30.01,29.48,7,3,22,1.06
2012-12-27,51.9,40.5,30.6,31.8,29.6,26.9,89,66,43,30.14,29.76,3,0,11,0.01
2012-12-28,44.3,36.6,27.6,31.9,28.2,24.6,91,73,53,30.24,30.03,1,0,9,0.00
2012-12-29,50.5,41.7,35.5,41.4,35.1,24.9,99,79,53,30.10,29.79,3,0,11,0.31
2012-12-30,47.0,35.5,26.7,25.1,21.7,17.0,84,60,32,30.47,30.10,2,0,9,0.00
2012-12-31,52.8,39.9,25.8,29.9,25.7,22.7,91,61,31,30.45,30.18,3,0,15,0.00
2013-1-1,50.5,49.0,46.1,49.9,41.5,27.8,100,78,44,30.18,29.99,1,0,9,0.25